Location: Unspecified
(22.6800°N, 112.2000°E)
Time: 20:04:51
(UTC+08:00)

X-37B - Visible Passes

Search period start: 18 June 2021 00:00
Search period end: 28 June 2021 00:00
Orbit: 386 x 389 km, 45.0° (Epoch: 10 June)

Date Brightness Start Highest point End Pass type
(mag) Time Alt. Az. Time Alt. Az. Time Alt. Az.
21 Jun 3.9 04:36:57 10° N 04:38:44 14° NNE 04:40:31 10° ENE visible
21 Jun 1.5 21:04:56 10° WSW 21:08:01 49° NW 21:08:01 49° NW visible
22 Jun 0.8 05:13:59 10° NW 05:17:09 75° NE 05:20:17 10° SE visible
22 Jun 0.6 20:06:34 10° SW 20:09:40 59° SE 20:12:48 10° NE visible
22 Jun 4.2 21:45:40 10° NW 21:46:30 11° NNW 21:47:20 10° NNW visible
23 Jun 2.7 04:15:57 10° NNW 04:18:45 29° NE 04:21:34 10° E visible
23 Jun 3.4 20:45:29 10° W 20:47:58 21° NW 20:50:28 10° NNE visible
24 Jun 3.8 03:20:02 14° NNE 03:20:16 14° NE 03:22:05 10° ENE visible
24 Jun 1.1 04:54:01 10° WNW 04:56:59 37° SW 04:59:55 10° SSE visible
24 Jun 1.7 19:46:28 10° WSW 19:49:32 48° NW 19:52:37 10° NE visible
25 Jun 3.0 04:01:06 16° SE 04:01:06 16° SE 04:01:49 10° SE visible
25 Jun 4.2 20:27:17 10° NW 20:28:02 11° NNW 20:28:48 10° NNW visible
